Regional Weather Roundup
Issued by NWS Goodland, KS

Home | Current Version | Previous Version | Text Only | Print | Product List | Glossary Off
Versions: 1 2 3 4 5 6 7 8 9 10 11 12 13 14 15 16 17 18 19 20 21 22 23 24 25 26 27 28 29 30 31 32 33 34 35 36 37 38 39 40 41 42 43 44 45 46 47 48 49 50

000
ASUS43 KGLD 181008
RWRGLD

GOODLAND FORECAST AREA HOURLY WEATHER ROUNDUP
NATIONAL WEATHER SERVICE GOODLAND KS
300 AM MST THU DEC 18 2014

...OFFICIAL OBSERVATIONS...

CITY           SKY/WX    TMP DP  RH WIND       PRES   REMARKS
GOODLAND KS    CLOUDY    23  21  92 SE3       30.04S
HILL CITY KS   CLOUDY    26  24  92 E7        30.12F
IMPERIAL NEB   CLOUDY    26  22  84 SW7       30.06R
MCCOOK NEB     CLOUDY    22  20  92 E3        30.09F FOG
AKRON CO       MOCLDY    20  18  92 W14       29.98S WCI   7
BURLINGTON CO  CLOUDY    25  23  92 SW5       30.01S FOG
LIMON CO       MOCLDY    19  16  88 N3        29.99R
$$

...UNOFFICIAL OBSERVATIONS...

CITY           SKY/WX    TMP DP  RH WIND       PRES   REMARKS
GOVE KS          N/A     28  32 100 MISG        N/A
SHARON SPRINGS   N/A     27  26  96 CALM        N/A
TRIBUNE KS     CLOUDY    30  30 100 CALM      30.06R VSB 1/2
KIT CARSON CO    N/A     24  22  92 MISG        N/A
$$



USA.gov is the U.S. government's official web portal to all federal, state and local government web resources and services.